TimeMDT,TemperatureF,Dew PointF,Humidity,Sea Level PressureIn,VisibilityMPH,Wind Direction,Wind SpeedMPH,Gust SpeedMPH,PrecipitationIn,Events,Conditions,WindDirDegrees,DateUTC
12:53 AM,71.1,5.0,8,29.55,10.0,Calm,Calm,-,N/A,,Clear,0,2013-06-19 06:53:00
1:53 AM,73.9,5.0,7,29.54,10.0,Calm,Calm,-,N/A,,Clear,0,2013-06-19 07:53:00
2:53 AM,71.1,6.1,8,29.55,10.0,SSE,5.8,-,N/A,,Clear,160,2013-06-19 08:53:00
3:53 AM,66.9,5.0,9,29.56,10.0,NE,4.6,-,N/A,,Clear,50,2013-06-19 09:53:00
4:53 AM,69.1,6.1,9,29.57,10.0,Calm,Calm,-,N/A,,Clear,0,2013-06-19 10:53:00
5:53 AM,59.0,5.0,12,29.60,10.0,Variable,4.6,-,N/A,,Clear,0,2013-06-19 11:53:00
6:53 AM,66.9,7.0,10,29.60,10.0,East,4.6,-,N/A,,Clear,80,2013-06-19 12:53:00
7:53 AM,75.0,10.0,8,29.60,10.0,Calm,Calm,-,N/A,,Clear,0,2013-06-19 13:53:00
8:53 AM,81.0,12.0,7,29.59,10.0,SSE,12.7,-,N/A,,Clear,160,2013-06-19 14:53:00
9:43 AM,84.2,8.6,6,29.79,10.0,SSW,25.3,35.7,N/A,,Clear,200,2013-06-19 15:43:00
9:53 AM,84.9,10.0,6,29.58,10.0,SSW,24.2,34.5,N/A,,Clear,200,2013-06-19 15:53:00
10:53 AM,87.1,9.0,5,29.57,10.0,SW,24.2,29.9,N/A,,Clear,220,2013-06-19 16:53:00
11:53 AM,89.1,6.1,4,29.57,10.0,SSW,18.4,31.1,N/A,,Clear,200,2013-06-19 17:53:00
12:53 PM,91.0,7.0,4,29.56,10.0,SW,20.7,32.2,N/A,,Clear,220,2013-06-19 18:53:00
1:53 PM,91.0,3.0,4,29.55,10.0,SSW,17.3,38.0,N/A,,Clear,200,2013-06-19 19:53:00
2:53 PM,93.0,3.9,4,29.52,10.0,WSW,20.7,40.3,N/A,,Clear,240,2013-06-19 20:53:00
3:53 PM,93.0,6.1,4,29.52,10.0,SSW,23.0,39.1,N/A,,Clear,210,2013-06-19 21:53:00
4:53 PM,91.9,7.0,4,29.51,10.0,SW,18.4,-,N/A,,Clear,220,2013-06-19 22:53:00
5:53 PM,93.0,7.0,4,29.51,10.0,SW,25.3,32.2,N/A,,Clear,230,2013-06-19 23:53:00
6:53 PM,91.0,7.0,4,29.49,10.0,WSW,25.3,35.7,N/A,,Clear,240,2013-06-20 00:53:00
7:53 PM,89.1,8.1,5,29.49,10.0,WSW,24.2,32.2,N/A,,Clear,250,2013-06-20 01:53:00
8:53 PM,84.0,5.0,5,29.51,10.0,West,18.4,29.9,N/A,,Clear,260,2013-06-20 02:53:00
9:53 PM,80.1,5.0,6,29.54,-9999.0,WNW,12.7,-,N/A,,Unknown,290,2013-06-20 03:53:00
10:53 PM,77.0,-6.0,4,29.57,10.0,West,13.8,-,N/A,,Clear,280,2013-06-20 04:53:00
11:53 PM,73.9,-9.9,4,29.59,10.0,West,12.7,-,N/A,,Clear,280,2013-06-20 05:53:00